TimeCDT,TemperatureF,Dew PointF,Humidity,Sea Level PressureIn,VisibilityMPH,Wind Direction,Wind SpeedMPH,Gust SpeedMPH,PrecipitationIn,Events,Conditions,WindDirDegrees,DateUTC
12:15 AM,46.4,45.0,95,30.00,5.0,NNE,11.5,-,N/A,Rain,Rain,20,2014-03-29 05:15:00
12:35 AM,45.7,44.6,96,30.00,7.0,North,10.4,-,N/A,Rain,Rain,10,2014-03-29 05:35:00
12:55 AM,45.3,44.1,95,30.02,5.0,NNE,4.6,-,N/A,Rain,Rain,30,2014-03-29 05:55:00
1:15 AM,44.6,43.7,97,29.98,5.0,North,11.5,18.4,N/A,Rain,Light Rain,10,2014-03-29 06:15:00
1:35 AM,44.1,43.2,97,29.98,5.0,North,12.7,-,N/A,Rain,Rain,360,2014-03-29 06:35:00
1:55 AM,43.9,43.2,97,29.97,5.0,NNE,10.4,18.4,N/A,Rain,Light Rain,20,2014-03-29 06:55:00
2:15 AM,43.7,43.2,98,29.96,4.0,NNE,10.4,-,N/A,Rain,Rain,30,2014-03-29 07:15:00
2:35 AM,43.7,43.0,97,29.94,4.0,NNE,10.4,-,N/A,Rain,Light Rain,20,2014-03-29 07:35:00
2:55 AM,43.7,43.2,98,29.94,4.0,NNE,9.2,17.3,N/A,Rain,Light Rain,30,2014-03-29 07:55:00
3:15 AM,43.7,43.2,98,29.93,4.0,NNE,10.4,-,N/A,Rain,Rain,20,2014-03-29 08:15:00
3:35 AM,43.3,43.0,99,29.94,4.0,North,9.2,16.1,N/A,Rain,Light Rain,350,2014-03-29 08:35:00
3:55 AM,43.3,43.0,99,29.93,4.0,North,11.5,18.4,N/A,,Drizzle,360,2014-03-29 08:55:00
4:15 AM,43.3,43.0,99,29.93,5.0,North,8.1,-,N/A,,Drizzle,360,2014-03-29 09:15:00
4:35 AM,43.0,42.8,99,29.93,5.0,North,10.4,17.3,N/A,Rain,Light Rain,10,2014-03-29 09:35:00
4:55 AM,42.6,42.1,98,29.93,5.0,North,11.5,17.3,N/A,,Drizzle,360,2014-03-29 09:55:00
5:15 AM,42.4,42.1,99,29.94,4.0,North,10.4,-,N/A,,Drizzle,360,2014-03-29 10:15:00
5:35 AM,42.1,41.5,98,29.95,4.0,North,11.5,16.1,N/A,,Heavy Drizzle,360,2014-03-29 10:35:00
5:55 AM,41.9,41.5,99,29.94,4.0,North,11.5,16.1,N/A,Rain,Light Rain,10,2014-03-29 10:55:00
6:15 AM,41.9,41.4,98,29.95,4.0,North,12.7,-,N/A,Rain,Rain,360,2014-03-29 11:15:00
6:35 AM,41.9,41.4,98,29.96,5.0,North,9.2,-,N/A,Rain,Rain,10,2014-03-29 11:35:00
6:55 AM,41.9,41.4,98,29.97,5.0,North,9.2,17.3,N/A,Rain,Light Rain,10,2014-03-29 11:55:00
7:15 AM,41.9,41.4,98,29.98,3.0,North,6.9,-,N/A,Rain,Rain,360,2014-03-29 12:15:00
7:35 AM,41.9,41.5,99,30.00,3.0,North,9.2,-,N/A,Rain,Light Rain,360,2014-03-29 12:35:00
7:55 AM,41.9,41.5,99,30.00,4.0,NNW,11.5,20.7,N/A,Rain,Light Rain,340,2014-03-29 12:55:00
8:15 AM,41.5,41.0,98,30.01,4.0,NNW,13.8,20.7,N/A,Rain,Light Rain,340,2014-03-29 13:15:00
8:35 AM,41.2,40.8,99,30.02,4.0,NNW,12.7,19.6,N/A,Rain,Light Rain,340,2014-03-29 13:35:00
8:55 AM,41.0,40.3,97,30.03,5.0,NNW,11.5,21.9,N/A,Rain,Light Rain,340,2014-03-29 13:55:00
9:15 AM,41.0,40.3,97,30.03,5.0,North,6.9,10.4,N/A,Rain,Light Rain,350,2014-03-29 14:15:00
9:35 AM,41.0,40.1,97,30.04,5.0,NNW,15.0,20.7,N/A,Rain,Rain,340,2014-03-29 14:35:00
9:55 AM,41.0,40.1,97,30.04,7.0,NNW,16.1,-,N/A,,Overcast,330,2014-03-29 14:55:00
10:15 AM,40.6,39.7,97,30.06,5.0,NNW,13.8,23.0,N/A,,Overcast,330,2014-03-29 15:15:00
10:35 AM,40.6,39.6,96,30.06,5.0,NNW,11.5,16.1,N/A,,Overcast,340,2014-03-29 15:35:00
10:55 AM,40.8,39.6,95,30.06,5.0,NNW,12.7,19.6,N/A,,Overcast,340,2014-03-29 15:55:00
11:15 AM,40.1,38.7,95,30.07,5.0,North,15.0,23.0,N/A,,Overcast,350,2014-03-29 16:15:00
11:35 AM,40.8,38.7,92,30.07,5.0,NNW,10.4,20.7,N/A,,Overcast,330,2014-03-29 16:35:00
11:55 AM,40.8,38.3,91,30.06,5.0,North,10.4,19.6,N/A,,Overcast,350,2014-03-29 16:55:00
12:15 PM,41.7,37.9,86,30.07,7.0,NNW,16.1,23.0,N/A,,Overcast,330,2014-03-29 17:15:00
12:35 PM,41.7,36.7,82,30.07,10.0,NNW,12.7,25.3,N/A,,Overcast,340,2014-03-29 17:35:00
12:55 PM,41.9,36.7,82,30.08,10.0,NW,10.4,19.6,N/A,,Overcast,320,2014-03-29 17:55:00
1:15 PM,41.9,36.0,79,30.08,7.0,NNW,15.0,25.3,N/A,,Overcast,330,2014-03-29 18:15:00
1:35 PM,42.4,36.3,79,30.08,7.0,NNW,16.1,23.0,N/A,,Overcast,340,2014-03-29 18:35:00
1:55 PM,41.9,35.6,78,30.09,10.0,NW,15.0,25.3,N/A,,Overcast,320,2014-03-29 18:55:00
2:15 PM,42.1,35.4,77,30.09,10.0,NNW,19.6,23.0,N/A,,Overcast,330,2014-03-29 19:15:00
2:35 PM,41.9,35.2,77,30.10,10.0,NNW,17.3,25.3,N/A,,Overcast,330,2014-03-29 19:35:00
2:55 PM,41.7,35.1,77,30.11,7.0,NNW,16.1,21.9,N/A,,Overcast,330,2014-03-29 19:55:00
3:15 PM,42.1,35.1,76,30.12,7.0,NNW,12.7,19.6,N/A,,Overcast,330,2014-03-29 20:15:00
3:35 PM,41.9,35.1,77,30.12,7.0,NNW,11.5,20.7,N/A,,Overcast,340,2014-03-29 20:35:00
3:55 PM,42.3,35.4,77,30.13,7.0,NNW,13.8,20.7,N/A,,Overcast,330,2014-03-29 20:55:00
4:15 PM,41.9,35.1,77,30.14,7.0,NNW,13.8,23.0,N/A,,Overcast,330,2014-03-29 21:15:00
4:35 PM,41.9,34.9,76,30.14,7.0,NNW,10.4,19.6,N/A,,Overcast,340,2014-03-29 21:35:00
4:55 PM,41.9,34.5,75,30.15,10.0,NNW,13.8,20.7,N/A,,Overcast,330,2014-03-29 21:55:00
5:15 PM,41.5,34.5,76,30.16,7.0,NW,11.5,19.6,N/A,,Overcast,320,2014-03-29 22:15:00
5:35 PM,41.5,34.3,76,30.16,10.0,NNW,12.7,18.4,N/A,,Overcast,340,2014-03-29 22:35:00
5:55 PM,41.4,33.8,74,30.17,10.0,NNW,13.8,23.0,N/A,,Overcast,330,2014-03-29 22:55:00
6:15 PM,41.2,33.1,73,30.18,10.0,NNW,13.8,20.7,N/A,,Overcast,340,2014-03-29 23:15:00
6:35 PM,41.0,33.3,74,30.18,10.0,NNW,15.0,20.7,N/A,,Overcast,330,2014-03-29 23:35:00
6:55 PM,40.6,33.1,74,30.19,10.0,NNW,11.5,-,N/A,,Overcast,330,2014-03-29 23:55:00
7:15 PM,40.6,32.9,74,30.20,10.0,NNW,8.1,12.7,N/A,,Overcast,330,2014-03-30 00:15:00
7:35 PM,40.6,32.9,74,30.21,10.0,NNW,11.5,18.4,N/A,,Overcast,330,2014-03-30 00:35:00
7:55 PM,40.6,32.9,74,30.21,10.0,NW,8.1,-,N/A,,Overcast,320,2014-03-30 00:55:00
8:15 PM,40.5,33.1,75,30.21,10.0,NNW,8.1,-,N/A,,Overcast,330,2014-03-30 01:15:00
8:35 PM,40.5,33.3,75,30.21,10.0,NNW,5.8,-,N/A,,Overcast,340,2014-03-30 01:35:00
8:55 PM,40.3,33.1,75,30.22,10.0,NW,4.6,-,N/A,,Overcast,320,2014-03-30 01:55:00
9:15 PM,39.7,33.3,78,30.23,10.0,NNW,4.6,-,N/A,,Mostly Cloudy,330,2014-03-30 02:15:00
9:35 PM,39.4,33.3,79,30.24,10.0,NW,4.6,-,N/A,,Overcast,310,2014-03-30 02:35:00
9:55 PM,39.7,33.8,79,30.24,10.0,NNW,6.9,-,N/A,,Overcast,330,2014-03-30 02:55:00
10:15 PM,39.7,33.8,79,30.24,10.0,North,4.6,-,N/A,,Overcast,360,2014-03-30 03:15:00
10:35 PM,39.4,33.8,80,30.23,10.0,North,5.8,-,N/A,,Overcast,350,2014-03-30 03:35:00
10:55 PM,39.0,33.1,79,30.24,10.0,North,5.8,-,N/A,,Overcast,350,2014-03-30 03:55:00
11:15 PM,37.6,32.7,83,30.24,10.0,NNW,3.5,-,N/A,,Scattered Clouds,340,2014-03-30 04:15:00
11:35 PM,36.9,32.4,84,30.23,10.0,North,3.5,-,N/A,,Clear,350,2014-03-30 04:35:00
11:55 PM,36.5,32.4,85,30.24,10.0,North,3.5,-,N/A,,Clear,360,2014-03-30 04:55:00